Weather History for Comanche, TX

Change the Weather History Date:

Wednesday, February 5, 2014

  Actual Average (KSEP) Record (KSEP)
Temperature  
Mean Temperature 28 °F -  
Max Temperature 36 °F 51 °F 85 °F (1925)
Min Temperature 19 °F 32 °F 13 °F (1989)
Degree Days  
Heating Degree Days 37    
Moisture  
Dew Point 19 °F    
Average Humidity 71    
Maximum Humidity 87    
Minimum Humidity 58    
Precipitation  
Precipitation 0.00 in - - ()
Sea Level Pressure  
Sea Level Pressure 30.39 in    
Wind  
Wind Speed 16 mph (North)    
Max Wind Speed 26 mph    
Max Gust Speed 31 mph    
Visibility 10 miles    
Events      
Averages and records for this station are not official NWS values.
T = Trace of Precipitation, MM = Missing Value Source: NWS Daily Summary

Daily Weather History Graph

Daily Weather History Graph

Search for Another Location

Airport:

Trip Planner

Search our weather history database for the weather conditions in past years. The results will help you decide how hot, cold, wet, or windy it might be!

Date:

Astronomy

Feb. 05, 2014 Rise Set
Actual Time 7:24 AM CST 6:12 PM CST
Civil Twilight 6:59 AM CST 6:37 PM CST
Nautical Twilight 6:30 AM CST 7:06 PM CST
Astronomical Twilight 6:01 AM CST 7:35 PM CST
Moon 11:06 AM CST (2/5) No Moon Set
Length of Visible Light 11h 38m
Length of Day
10h 47m
Waxing Crescent, 39% of the Moon is Illuminated
Feb 5
Waxing Crescent
Feb 6
First Quarter
Feb 14
Full
Feb 22
Last Quarter
Mar 1
New

Hourly Weather History & Observations

Time (CST) Temp. Windchill Dew Point Humidity Pressure Visibility Wind Dir Wind Speed Gust Speed Precip Events Conditions
12:15 AM 36.5 °F 27.8 °F 32.5 °F 86% 30.14 in 10.0 mi North 13.8 mph - N/A   Clear
12:35 AM 36.1 °F 28.2 °F 32.0 °F 85% 30.15 in 10.0 mi North 11.5 mph - N/A   Clear
12:55 AM 35.4 °F 27.3 °F 32.0 °F 87% 30.17 in 10.0 mi North 11.5 mph 16.1 mph N/A   Clear
1:15 AM 35.1 °F 24.5 °F 31.5 °F 87% 30.18 in 10.0 mi North 18.4 mph 23.0 mph N/A   Clear
1:35 AM 34.7 °F 24.0 °F 30.2 °F 84% 30.19 in 10.0 mi NNW 18.4 mph 23.0 mph N/A   Clear
1:55 AM 33.4 °F 22.3 °F 28.2 °F 81% 30.20 in 10.0 mi North 18.4 mph 27.6 mph N/A   Clear
2:15 AM 32.5 °F 21.9 °F 28.4 °F 85% 30.21 in 10.0 mi North 16.1 mph 23.0 mph N/A   Clear
2:35 AM 32.7 °F 23.9 °F 28.8 °F 85% 30.23 in 10.0 mi North 11.5 mph - N/A   Mostly Cloudy
2:55 AM 31.8 °F 21.4 °F 25.9 °F 79% 30.24 in 10.0 mi North 15.0 mph 21.9 mph N/A   Scattered Clouds
3:15 AM 31.1 °F 21.4 °F 25.7 °F 80% 30.25 in 10.0 mi North 12.7 mph - N/A   Clear
3:35 AM 30.7 °F 20.9 °F 25.2 °F 80% 30.26 in 10.0 mi North 12.7 mph 20.7 mph N/A   Clear
3:55 AM 30.6 °F 18.6 °F 25.2 °F 80% 30.26 in 10.0 mi North 18.4 mph - N/A   Scattered Clouds
4:15 AM 30.2 °F 16.8 °F 24.8 °F 80% 30.28 in 10.0 mi North 23.0 mph - N/A   Overcast
4:35 AM 30.2 °F 16.8 °F 24.3 °F 79% 30.28 in 10.0 mi North 23.0 mph 28.8 mph N/A   Overcast
4:55 AM 30.0 °F 16.6 °F 24.1 °F 79% 30.29 in 10.0 mi North 23.0 mph 28.8 mph N/A   Overcast
5:15 AM 30.0 °F 16.9 °F 24.3 °F 79% 30.29 in 10.0 mi North 21.9 mph 28.8 mph N/A   Overcast
5:35 AM 29.8 °F 15.5 °F 24.1 °F 79% 30.30 in 10.0 mi North 26.5 mph 31.1 mph N/A   Overcast
5:55 AM 27.5 °F 15.4 °F 21.4 °F 78% 30.32 in 10.0 mi North 16.1 mph 27.6 mph N/A   Overcast
6:15 AM 27.3 °F 13.6 °F 21.0 °F 77% 30.34 in 10.0 mi North 20.7 mph 29.9 mph N/A   Overcast
6:35 AM 27.1 °F 12.4 °F 20.8 °F 77% 30.35 in 10.0 mi North 24.2 mph 29.9 mph N/A   Overcast
6:55 AM 26.6 °F 12.7 °F 20.3 °F 77% 30.36 in 10.0 mi North 20.7 mph - N/A   Overcast
7:15 AM 26.4 °F 12.8 °F 20.3 °F 78% 30.38 in 10.0 mi North 19.6 mph 28.8 mph N/A   Overcast
7:35 AM 26.4 °F 14.0 °F 20.5 °F 78% 30.39 in 10.0 mi North 16.1 mph 23.0 mph N/A   Overcast
7:55 AM 26.4 °F 14.5 °F 20.3 °F 78% 30.41 in 10.0 mi North 15.0 mph 24.2 mph N/A   Overcast
8:15 AM 26.1 °F 12.7 °F 19.2 °F 75% 30.42 in 10.0 mi North 18.4 mph 24.2 mph N/A   Overcast
8:35 AM 26.1 °F 14.5 °F 19.0 °F 75% 30.44 in 10.0 mi North 13.8 mph 19.6 mph N/A   Overcast
8:55 AM 26.2 °F 14.2 °F 19.4 °F 75% 30.46 in 10.0 mi North 15.0 mph 19.6 mph N/A   Overcast
9:15 AM 25.9 °F 11.7 °F 19.2 °F 76% 30.46 in 10.0 mi North 20.7 mph 24.2 mph N/A   Overcast
9:35 AM 25.7 °F 12.3 °F 19.0 °F 76% 30.48 in 10.0 mi North 18.4 mph - N/A   Overcast
9:55 AM 26.1 °F 14.0 °F 18.7 °F 74% 30.49 in 10.0 mi North 15.0 mph 23.0 mph N/A   Overcast
10:35 AM 27.1 °F 14.9 °F 18.1 °F 69% 30.50 in 10.0 mi North 16.1 mph 19.6 mph N/A   Mostly Cloudy
10:55 AM 26.1 °F 12.7 °F 16.7 °F 68% 30.51 in 10.0 mi North 18.4 mph 23.0 mph N/A   Scattered Clouds
11:15 AM 26.2 °F 14.2 °F 15.6 °F 64% 30.50 in 10.0 mi North 15.0 mph - N/A   Scattered Clouds
11:35 AM 26.6 °F 14.3 °F 15.8 °F 64% 30.50 in 10.0 mi North 16.1 mph 25.3 mph N/A   Clear
11:55 AM 26.4 °F 15.5 °F 16.2 °F 65% 30.50 in 10.0 mi NNW 12.7 mph 21.9 mph N/A   Scattered Clouds
12:15 PM 26.1 °F 14.0 °F 15.3 °F 64% 30.49 in 10.0 mi North 15.0 mph - N/A   Scattered Clouds
12:35 PM 26.6 °F 13.4 °F 15.4 °F 63% 30.49 in 10.0 mi North 18.4 mph 23.0 mph N/A   Clear
12:55 PM 27.0 °F 15.6 °F 15.4 °F 62% 30.48 in 10.0 mi North 13.8 mph 18.4 mph N/A   Scattered Clouds
1:15 PM 27.1 °F 14.9 °F 14.9 °F 60% 30.47 in 10.0 mi North 16.1 mph 20.7 mph N/A   Scattered Clouds
1:35 PM 27.1 °F 15.4 °F 15.1 °F 60% 30.45 in 10.0 mi North 15.0 mph 21.9 mph N/A   Clear
1:55 PM 28.2 °F 17.7 °F 15.4 °F 59% 30.46 in 10.0 mi North 12.7 mph 19.6 mph N/A   Clear
2:15 PM 27.9 °F 15.5 °F 14.7 °F 58% 30.44 in 10.0 mi North 17.3 mph 24.2 mph N/A   Clear
2:35 PM 27.5 °F 15.9 °F 14.9 °F 59% 30.43 in 10.0 mi North 15.0 mph - N/A   Clear
2:55 PM 27.1 °F 14.1 °F 14.9 °F 60% 30.43 in 10.0 mi North 18.4 mph 24.2 mph N/A   Clear
3:15 PM 27.5 °F 15.9 °F 15.1 °F 60% 30.42 in 10.0 mi North 15.0 mph 21.9 mph N/A   Clear
3:35 PM 27.3 °F 14.4 °F 15.1 °F 60% 30.42 in 10.0 mi North 18.4 mph 24.2 mph N/A   Clear
3:55 PM 27.0 °F 14.3 °F 14.9 °F 60% 30.42 in 10.0 mi North 17.3 mph 21.9 mph N/A   Clear
4:15 PM 27.0 °F 14.7 °F 15.1 °F 61% 30.42 in 10.0 mi North 16.1 mph 21.9 mph N/A   Clear
4:35 PM 26.8 °F 13.7 °F 15.1 °F 61% 30.41 in 10.0 mi North 18.4 mph 25.3 mph N/A   Clear
4:55 PM 26.2 °F 14.7 °F 14.7 °F 62% 30.42 in 10.0 mi North 13.8 mph 20.7 mph N/A   Clear
5:15 PM 26.1 °F 13.1 °F 14.9 °F 63% 30.42 in 10.0 mi North 17.3 mph - N/A   Clear
5:35 PM 25.5 °F 13.3 °F 15.1 °F 65% 30.42 in 10.0 mi North 15.0 mph - N/A   Clear
5:55 PM 25.2 °F 12.9 °F 14.4 °F 64% 30.43 in 10.0 mi North 15.0 mph 23.0 mph N/A   Clear
6:15 PM 24.8 °F 12.9 °F 14.5 °F 65% 30.42 in 10.0 mi NNE 13.8 mph 20.7 mph N/A   Clear
6:35 PM 24.8 °F 11.5 °F 14.9 °F 66% 30.43 in 10.0 mi North 17.3 mph - N/A   Clear
6:55 PM 24.6 °F 11.7 °F 14.7 °F 66% 30.43 in 10.0 mi North 16.1 mph 19.6 mph N/A   Clear
7:15 PM 24.6 °F 11.7 °F 14.7 °F 66% 30.43 in 10.0 mi NNE 16.1 mph 21.9 mph N/A   Clear
7:35 PM 24.4 °F 13.0 °F 15.1 °F 68% 30.44 in 10.0 mi North 12.7 mph - N/A   Clear
7:55 PM 23.9 °F 10.8 °F 14.5 °F 67% 30.44 in 10.0 mi NNE 16.1 mph - N/A   Clear
8:15 PM 23.7 °F 10.5 °F 14.4 °F 67% 30.44 in 10.0 mi North 16.1 mph - N/A   Clear
8:35 PM 23.5 °F 11.8 °F 14.5 °F 69% 30.45 in 10.0 mi North 12.7 mph 20.7 mph N/A   Clear
8:55 PM 23.0 °F 11.1 °F 14.7 °F 71% 30.46 in 10.0 mi North 12.7 mph - N/A   Clear
9:15 PM 22.6 °F 9.6 °F 13.8 °F 69% 30.46 in 10.0 mi North 15.0 mph - N/A   Clear
9:35 PM 22.6 °F 10.7 °F 13.8 °F 69% 30.46 in 10.0 mi North 12.7 mph - N/A   Clear
9:55 PM 22.5 °F 10.5 °F 13.8 °F 69% 30.48 in 10.0 mi North 12.7 mph 18.4 mph N/A   Clear
10:15 PM 22.1 °F 10.0 °F 14.0 °F 71% 30.48 in 10.0 mi North 12.7 mph - N/A   Scattered Clouds
10:35 PM 22.1 °F 9.5 °F 14.0 °F 71% 30.48 in 10.0 mi North 13.8 mph - N/A   Scattered Clouds
10:55 PM 21.6 °F 9.3 °F 14.0 °F 73% 30.48 in 10.0 mi North 12.7 mph - N/A   Mostly Cloudy
11:15 PM 21.0 °F 8.6 °F 13.8 °F 74% 30.48 in 10.0 mi North 12.7 mph - N/A   Overcast
11:35 PM 20.3 °F 8.3 °F 13.1 °F 74% 30.48 in 10.0 mi North 11.5 mph 15.0 mph N/A   Overcast
11:55 PM 19.8 °F 6.5 °F 12.9 °F 75% 30.49 in 10.0 mi North 13.8 mph - N/A   Overcast